| time (UTC) | temp C | wind direction | speed KPH | gust KPH | rain 1hr cm | rain 24hr cm | rain mn cm | humidity % | barometer mb |
| 20260505041553 | 15 | 67 | 0.0 | 0.0 | 0.00 | 0.00 | 0.00 | 73 | 1010.7 |
| 20260505040057 | 15 | 0 | 0.0 | 4.8 | 0.00 | 0.00 | 0.00 | 76 | 1010.7 |
| 20260505034613 | 15 | 72 | 1.6 | 6.4 | 0.00 | 0.00 | 0.00 | 79 | 1010.7 |
| 20260505033057 | 15 | 101 | 1.6 | 9.7 | 0.00 | 0.00 | 0.00 | 81 | 1010.7 |
| 20260505031555 | 16 | 0 | 0.0 | 6.4 | 0.00 | 0.00 | 0.00 | 82 | 1010.8 |
| 20260505030053 | 16 | 132 | 0.0 | 11.3 | 0.00 | 0.00 | 0.00 | 82 | 1010.8 |
| 20260505024554 | 17 | 0 | 3.2 | 9.7 | 0.00 | 0.00 | 0.00 | 83 | 1010.9 |
| 20260505023053 | 17 | 75 | 3.2 | 9.7 | 0.00 | 0.00 | 0.00 | 83 | 1010.8 |
| 20260505021556 | 17 | 102 | 4.8 | 12.9 | 0.00 | 0.00 | 0.00 | 82 | 1010.7 |
| 20260505020057 | 17 | 107 | 4.8 | 12.9 | 0.00 | 0.00 | 0.00 | 82 | 1010.7 |
| 20260505014556 | 17 | 102 | 3.2 | 11.3 | 0.00 | 0.00 | 0.00 | 82 | 1010.8 |
| 20260505013053 | 17 | 98 | 4.8 | 9.7 | 0.00 | 0.00 | 0.00 | 81 | 1010.8 |
| 20260505011608 | 17 | 105 | 3.2 | 9.7 | 0.00 | 0.00 | 0.00 | 81 | 1011.0 |
| 20260505010053 | 17 | 106 | 4.8 | 9.7 | 0.00 | 0.00 | 0.00 | 80 | 1011.2 |
| 20260505004559 | 17 | 99 | 4.8 | 9.7 | 0.00 | 0.00 | 0.00 | 79 | 1011.4 |
| 20260505003057 | 17 | 109 | 3.2 | 11.3 | 0.00 | 0.00 | 0.00 | 79 | 1011.5 |
| 20260505001608 | 17 | 122 | 4.8 | 9.7 | 0.00 | 0.00 | 0.00 | 78 | 1011.6 |
| 20260505000106 | 18 | 123 | 1.6 | 6.4 | 0.00 | 0.00 | 0.00 | 77 | 1011.7 |
| 20260504234548 | 18 | 0 | 0.0 | 0.0 | 0.00 | 0.00 | 0.00 | 77 | 1011.6 |
| 20260504233106 | 18 | 107 | 0.0 | 0.0 | 0.00 | 0.00 | 0.00 | 76 | 1011.6 |
| 20260504231556 | 18 | 0 | 0.0 | 1.6 | 0.00 | 0.00 | 0.00 | 75 | 1011.6 |
| 20260504230053 | 18 | 0 | 0.0 | 1.6 | 0.00 | 0.00 | 0.00 | 75 | 1011.7 |
| 20260504224549 | 18 | 0 | 0.0 | 1.6 | 0.00 | 0.00 | 0.00 | 75 | 1011.5 |
| 20260504223059 | 18 | 0 | 1.6 | 3.2 | 0.00 | 0.00 | 0.00 | 75 | 1011.5 |
| 20260504221555 | 18 | 0 | 0.0 | 9.7 | 0.00 | 0.00 | 0.00 | 75 | 1011.4 |
| 20260504220057 | 18 | 0 | 1.6 | 6.4 | 0.00 | 0.00 | 0.00 | 74 | 1011.3 |
| 20260504214557 | 18 | 0 | 0.0 | 1.6 | 0.00 | 0.00 | 0.00 | 74 | 1011.3 |
| 20260504213055 | 18 | 0 | 0.0 | 1.6 | 0.00 | 0.00 | 0.00 | 74 | 1011.3 |
| 20260504211553 | 18 | 0 | 0.0 | 3.2 | 0.00 | 0.00 | 0.00 | 74 | 1011.3 |
| 20260504210055 | 19 | 0 | 0.0 | 4.8 | 0.00 | 0.00 | 0.00 | 74 | 1011.3 |
| 20260504204615 | 19 | 0 | 0.0 | 4.8 | 0.00 | 0.00 | 0.00 | 73 | 1011.0 |
| 20260504203058 | 19 | 317 | 0.0 | 8.0 | 0.00 | 0.00 | 0.00 | 72 | 1010.9 |
| 20260504201555 | 19 | 327 | 1.6 | 8.0 | 0.00 | 0.00 | 0.00 | 72 | 1010.7 |
| 20260504194603 | 20 | 317 | 4.8 | 16.1 | 0.00 | 0.00 | 0.00 | 71 | 1010.0 |
| 20260504193057 | 20 | 340 | 11.3 | 17.7 | 0.00 | 0.00 | 0.00 | 69 | 1010.0 |
| 20260504191611 | 20 | 338 | 6.4 | 9.7 | 0.00 | 0.00 | 0.00 | 68 | 1009.9 |
| 20260504190053 | 21 | 181 | 1.6 | 8.0 | 0.00 | 0.00 | 0.00 | 67 | 1009.9 |
| 20260504184553 | 21 | 355 | 1.6 | 16.1 | 0.00 | 0.00 | 0.00 | 66 | 1009.7 |
| 20260504183058 | 21 | 278 | 4.8 | 17.7 | 0.00 | 0.00 | 0.00 | 65 | 1009.7 |
| 20260504181559 | 21 | 311 | 12.9 | 25.7 | 0.00 | 0.00 | 0.00 | 65 | 1009.8 |
| 20260504180054 | 21 | 355 | 8.0 | 29.0 | 0.00 | 0.00 | 0.00 | 63 | 1009.5 |
| 20260504174557 | 22 | 342 | 17.7 | 29.0 | 0.00 | 0.00 | 0.00 | 62 | 1009.6 |
| 20260504173057 | 22 | 305 | 8.0 | 24.1 | 0.00 | 0.00 | 0.00 | 61 | 1009.6 |
| 20260504171554 | 22 | 294 | 17.7 | 33.8 | 0.00 | 0.00 | 0.00 | 60 | 1009.5 |
| 20260504090104 | 20 | 323 | 6.4 | 16.1 | 0.00 | 0.00 | 0.00 | 76 | 1012.4 |
| 20260504081553 | 18 | 329 | 1.6 | 14.5 | 0.00 | 0.00 | 0.00 | 82 | 1012.5 |